Zurück zum Katalog

ION SCV-018

AktivWissenschaftSSO
NORAD 64575·PAYLOAD·🇮🇹 Italy

Gestartet Jun 23, 2025 von Vandenberg Space Force Base

Loading…

Nächste Überflüge (nächste 24 Stunden)

TLE

AktuellSource: Space-Track

Epoche: Sep 14, 2026, 06:09 UTC

1 64575U 25135AZ  26257.25629593  .00000790  00000-0  77940-4 0  9993
2 64575  97.7854  11.5860 0012475   2.6644 357.4641 14.94780998 67238

Verfolge ION SCV-018 in Echtzeit mit AllMySat

Download on the App Store